Location: Branche des Alpilles
(43.6087°N, 4.6976°E)
Time: 04:41:15
(UTC+00:00)

Lacrosse 5 rocket - Pass Details

Date: 30 November 2020
Orbit: 461 x 634 km, 57.0° (Epoch: 24 January)

Event Time Altitude Azimuth Distance (km) Brightness Sun altitude
Rises 16:47:16 0° 237° (WSW) 2,545 6.8 -7.5°
Reaches altitude 10° 16:49:29 10° 241° (WSW) 1,647 5.5 -7.9°
Maximum altitude 16:53:06 56° 321° (NW) 563 1.5 -8.5°
Drops below altitude 10° 16:56:40 10° 40° (NE) 1,616 3.2 -9.1°
Enters shadow 16:56:43 10° 41° (NE) 1,638 3.2 -9.1°
